[[{"header":{"parameterUnit":"m.s-1","parameterCategory":1,"la1":30.2991,"la2":30.254,"lo1":-89.0895,"lo2":-89.0444,"dy":0.0017,"dx":0.0017,"nx":28,"ny":28,"refTime":"2025-03-28T09:00:00:Z","depth":0,"parameterNumber":2,"parameterNumberName":"U-component_of_WINDS"},"data":[0,0,0,0,0,0,0,0,0,0,0,0,0,0,0,0,0,0,0,0,0,0,0,0,0,0,0,0,0,0,0,0,0,0,0,0,0,0,0,0,0,0,0,0,0,0,0,0,0,0,0,0,0,0,0,0,0,0,-5.083,-5.0831,0,-5.0899,-5.09,-5.0901,-5.083,-5.0827,-5.0824,-5.0822,-5.0893,-5.0897,-5.0901,0,0,0,0,0,0,0,0,0,0,0,0,0,-5.0638,-5.0642,-5.083,-5.0831,-5.0832,-5.0899,-5.09,-5.0901,-5.083,-5.0827,-5.0824,-5.0821,-5.0891,-5.0896,-5.0902,0,0,0,0,0,0,0,0,0,0,0,0,0,-5.0716,-5.0643,-5.083,-5.0805,-5.0803,-5.0899,-5.09,-5.0901,-5.0831,-5.0827,-5.0823,-5.0819,-5.0889,-5.0896,-5.0903,-5.1027,0,0,-5.0923,-5.0926,0,0,0,0,0,0,0,0,-5.0711,-5.0723,-5.0808,-5.0807,-5.0805,-5.0852,-5.0858,-5.0943,-5.0832,-5.0821,-5.0822,-5.0817,-5.0882,-5.0889,-5.0911,-5.103,-5.1033,-5.0924,-5.0928,-5.093,-5.0932,0,0,0,0,0,0,0,-5.0706,-5.0719,-5.0857,-5.0809,-5.0807,-5.079,-5.0797,-5.0874,-5.0874,-5.0821,-5.0816,-5.0825,-5.0881,-5.0905,-5.0913,-5.1034,-5.0923,-5.0929,-5.0933,-5.0936,-5.1258,-5.1262,0,0,0,0,0,0,-5.0703,-5.0715,-5.0855,-5.0859,-5.0747,-5.0797,-5.0804,-5.0841,-5.0873,-5.0874,-5.0829,-5.0822,-5.0896,-5.0905,-5.0915,-5.1061,-5.093,-5.0937,-5.0941,-5.1253,-5.1259,-5.1263,0,0,0,0,0,0,-5.0699,-5.0716,-5.0852,-5.0786,-5.0802,-5.0805,-5.0847,-5.0845,-5.0868,-5.0879,-5.0878,-5.0854,-5.0893,-5.0905,-5.0999,-5.1062,-5.094,-5.0946,-5.1248,-5.1255,-5.1261,-5.1355,0,0,0,0,0,0,-5.0694,-5.0715,-5.0762,-5.0788,-5.0806,-5.0936,-5.085,-5.0849,-5.088,-5.0872,-5.0902,-5.0903,-5.0891,-5.099,-5.1006,-5.1069,-5.0951,-5.1242,-5.1251,-5.1259,-5.1346,-5.1364,-5.1379,0,0,0,0,0,-5.0687,-5.0786,-5.0765,-5.0782,-5.0865,-5.0939,-5.095,-5.0934,-5.0886,-5.0933,-5.0939,-5.0902,-5.1054,-5.1,-5.1018,-5.1084,-5.1238,-5.1248,-5.1258,-5.1339,-5.1361,-5.1379,0,0,0,0,0,0,-5.0767,-5.0789,-5.0766,-5.0875,-5.0906,-5.0927,-5.0986,-5.0958,-5.1003,-5.0993,-5.0972,-5.0979,-5.1078,-5.1091,-5.1031,-5.1206,-5.1138,-5.1152,-5.1193,-5.1214,-5.123,-5.1224,-5.0957,0,0,0,0,0,-5.0798,-5.0857,-5.0873,-5.0968,-5.0985,-5.0983,-5.1015,-5.1001,-5.1031,-5.1044,-5.1057,-5.1089,-5.1144,-5.118,-5.1231,-5.1349,-5.1354,-5.1404,-5.142,-5.1434,-5.1445,-5.1508,-5.153,-5.1297,-5.1297,-5.1297,0,0,-5.0861,-5.088,-5.0919,-5.0985,-5.1006,-5.1068,-5.0994,-5.1062,-5.1107,-5.1054,-5.1143,-5.1155,-5.1189,-5.1295,-5.1342,-5.1308,-5.1512,-5.1447,-5.1458,-5.1462,-5.1521,-5.1543,-5.1562,-5.1304,-5.1303,-5.1301,0,0,-5.1007,-5.1028,-5.1109,-5.1133,-5.1168,-5.1167,-5.1186,-5.1213,-5.1218,-5.1307,-5.1268,-5.1323,-5.1418,-5.1443,-5.1468,-5.1627,-5.1593,-5.1644,-5.173,-5.1791,-5.1809,-5.1825,-5.188,-5.19,-5.1657,-5.1657,-5.1657,0,-5.1081,-5.1171,-5.1154,-5.1225,-5.1255,-5.1211,-5.1293,-5.1317,-5.1367,-5.1389,-5.1351,-5.1469,-5.1489,-5.16,-5.1639,-5.1662,-5.1683,-5.1639,-5.1808,-5.1824,-5.1839,-5.1891,-5.1911,-5.1663,-5.1662,-5.1661,-5.1661,0,-5.126,-5.1323,-5.1385,-5.1434,-5.1471,-5.1548,-5.1542,-5.1582,-5.1566,-5.1569,-5.166,-5.1683,-5.1737,-5.1764,-5.1748,-5.1873,-5.185,-5.1811,-5.1742,-5.1867,-5.1915,-5.1935,-5.1671,-5.1669,-5.1667,-5.1666,0,0,-5.1454,-5.1494,-5.1517,-5.1538,-5.1575,-5.1624,-5.1699,-5.1752,-5.1786,-5.1823,-5.1884,-5.1967,-5.1931,-5.196,-5.1948,-5.2002,-5.2124,-5.1955,-5.1956,-5.1984,-5.2261,-5.2288,-5.2311,-5.2103,-5.2107,-5.211,-5.2257,0,-5.1599,-5.1727,-5.1715,-5.1838,-5.1896,-5.1856,-5.1921,-5.1951,-5.1957,-5.2007,-5.2013,-5.2071,-5.202,-5.2038,-5.209,-5.2098,-5.2178,-5.2087,-5.2159,-5.2161,-5.2148,-5.2337,-5.2365,-5.2503,-5.2276,-5.228,-5.2282,0,-5.1784,-5.1827,-5.1955,-5.1983,-5.2007,-5.2065,-5.2113,-5.2163,-5.2196,-5.2196,-5.223,-5.2208,-5.2284,-5.2216,-5.2319,-5.2257,-5.2287,-5.2295,-5.23,-5.2304,-5.2227,-5.2343,-5.2547,-5.2566,-5.2312,-5.2309,-5.2307,0,-5.191,-5.2001,-5.2088,-5.2109,-5.2144,-5.2186,-5.2202,-5.2231,-5.2265,-5.2308,-5.2329,-5.2381,-5.2408,-5.2449,-5.2442,-5.2393,-5.2547,-5.2478,-5.2548,-5.2548,-5.2579,-5.2576,-5.2788,-5.2603,-5.2603,-5.2603,-5.2602,0,-5.2071,-5.215,-5.2145,-5.2199,-5.2287,-5.2274,-5.2361,-5.2373,-5.24,-5.2455,-5.2425,-5.2478,-5.2467,-5.252,-5.2516,-5.2601,-5.2615,-5.2616,-5.2613,-5.2617,-5.2616,-5.2633,-5.2622,-5.2608,-5.2607,-5.2606,-5.2605,0,-5.2224,-5.2225,-5.2318,-5.2344,-5.2353,-5.2416,-5.2438,-5.2489,-5.2494,-5.2564,-5.258,-5.2587,-5.2648,-5.2646,-5.2715,-5.2712,-5.2816,-5.2804,-5.2805,-5.2801,-5.2869,-5.2862,-5.3096,-5.3126,-5.2925,-5.2927,-5.2929,0,-5.2325,-5.2385,-5.2418,-5.2453,-5.2473,-5.253,-5.2563,-5.2554,-5.259,-5.2633,-5.2679,-5.2738,-5.2783,-5.2882,-5.2893,-5.2946,-5.2933,-5.3012,-5.294,-5.2942,-5.2931,-5.2926,-5.2931,-5.3024,-5.3027,-5.3028,-5.303,0,-5.2503,-5.2501,-5.2551,-5.2602,-5.2643,-5.2682,-5.2718,-5.2749,-5.2743,-5.2786,-5.2848,-5.2883,-5.2954,-5.3012,-5.3063,-5.3081,-5.3054,-5.3053,-5.3071,-5.3074,-5.307,-5.3071,-5.2839,-5.3047,-5.3045,-5.3044,-5.3043,-5.3042,-5.2632,-5.2683,-5.2714,-5.2771,-5.2797,-5.2832,-5.2881,-5.2892,-5.2943,-5.3,-5.2992,-5.3061,-5.3094,-5.3159,-5.3182,-5.3236,-5.3208,-5.3235,-5.3241,-5.3247,-5.3254,-5.3065,-5.3245,-5.3245,-5.3245,-5.3244,-5.3244,0,-5.2806,-5.2825,-5.2877,-5.2929,-5.2974,-5.2947,-5.2986,-5.3025,-5.3086,-5.3119,-5.3165,-5.3236,-5.3292,-5.3309,-5.3363,-5.3403,-5.3393,-5.3418,-5.3413,-5.3417,-5.3277,-5.3254,-5.3425,-5.3425,-5.3425,-5.3425,-5.3425,-5.3425,-5.2902,-5.2986,-5.2988,-5.3086,-5.3104,-5.3171,-5.3196,-5.3228,-5.3254,-5.3335,-5.3381,-5.3392,-5.3419,-5.3475,-5.3526,-5.3529,-5.355,-5.3579,-5.3578,-5.3445,-5.3427,-5.3409,-5.3388,-5.3584,-5.3585,-5.3713,-5.3714,-5.3715]},{"header":{"parameterUnit":"m.s-1","parameterCategory":1,"la1":30.2991,"la2":30.254,"lo1":-89.0895,"lo2":-89.0444,"dy":0.0017,"dx":0.0017,"nx":28,"ny":28,"refTime":"2025-03-28T09:00:00:Z","depth":0,"parameterNumber":3,"parameterNumberName":"V-component_of_WINDS"},"data":[0,0,0,0,0,0,0,0,0,0,0,0,0,0,0,0,0,0,0,0,0,0,0,0,0,0,0,0,0,0,0,0,0,0,0,0,0,0,0,0,0,0,0,0,0,0,0,0,0,0,0,0,0,0,0,0,0,0,2.164,2.1641,0,2.1663,2.1663,2.1663,2.1631,2.163,2.1628,2.1627,2.1648,2.165,2.1651,0,0,0,0,0,0,0,0,0,0,0,0,0,2.157,2.1572,2.164,2.1641,2.1641,2.1663,2.1663,2.1663,2.1631,2.163,2.1628,2.1627,2.1648,2.165,2.1652,0,0,0,0,0,0,0,0,0,0,0,0,0,2.1597,2.1572,2.164,2.1628,2.1627,2.1662,2.1663,2.1663,2.1631,2.163,2.1628,2.1626,2.1647,2.1649,2.1652,2.1701,0,0,2.1659,2.166,0,0,0,0,0,0,0,0,2.1596,2.16,2.1629,2.1629,2.1628,2.1642,2.1646,2.1676,2.1632,2.1629,2.1627,2.1625,2.1648,2.165,2.1658,2.1702,2.1702,2.1659,2.1661,2.1662,2.1663,0,0,0,0,0,0,0,2.1594,2.1599,2.1649,2.163,2.1629,2.1621,2.1623,2.1651,2.1648,2.163,2.1627,2.163,2.1647,2.1655,2.1658,2.1703,2.1659,2.1661,2.1663,2.1664,2.179,2.1792,0,0,0,0,0,0,2.1594,2.1598,2.1648,2.165,2.1607,2.1623,2.1626,2.1639,2.1647,2.1647,2.1632,2.1629,2.1652,2.1655,2.1658,2.1717,2.1662,2.1664,2.1666,2.1788,2.1791,2.1793,0,0,0,0,0,0,2.1593,2.1599,2.1648,2.1623,2.1629,2.1626,2.1642,2.1641,2.1649,2.1649,2.1648,2.1641,2.1651,2.1655,2.1691,2.1718,2.1665,2.1667,2.1786,2.1789,2.1792,2.1835,0,0,0,0,0,0,2.1591,2.1598,2.1617,2.1624,2.163,2.168,2.1644,2.1642,2.1654,2.165,2.1658,2.1657,2.165,2.1688,2.1693,2.172,2.1669,2.1784,2.1787,2.1791,2.1831,2.1839,2.1845,0,0,0,0,0,2.1588,2.1627,2.1618,2.1624,2.1653,2.1681,2.1685,2.1676,2.1656,2.1674,2.1675,2.1657,2.1714,2.1692,2.1698,2.1725,2.1782,2.1786,2.179,2.1828,2.1837,2.1845,0,0,0,0,0,0,2.1622,2.1628,2.1617,2.166,2.1671,2.1676,2.1699,2.1686,2.1702,2.1698,2.1686,2.1688,2.1727,2.173,2.1705,2.1774,2.1744,2.175,2.1771,2.178,2.1787,2.1785,2.1671,0,0,0,0,0,2.1635,2.1657,2.1661,2.1698,2.1704,2.1701,2.1713,2.1705,2.1716,2.172,2.1722,2.1733,2.1753,2.1767,2.1785,2.1832,2.1833,2.1854,2.1861,2.1867,2.1872,2.1898,2.1908,2.1807,2.1807,2.1807,0,0,2.166,2.1666,2.1681,2.1705,2.1712,2.1737,2.1705,2.1731,2.1749,2.1723,2.1758,2.1761,2.1771,2.1813,2.1832,2.1817,2.1901,2.1872,2.1877,2.1879,2.1904,2.1913,2.1922,2.181,2.1809,2.1809,0,0,2.172,2.1726,2.1759,2.1768,2.178,2.1778,2.1786,2.1794,2.1795,2.183,2.1812,2.1833,2.1867,2.1877,2.1886,2.1952,2.1936,2.1958,2.1996,2.2021,2.2029,2.2036,2.2061,2.207,2.1963,2.1963,2.1963,0,2.175,2.1786,2.1777,2.1805,2.1817,2.1797,2.183,2.1838,2.1856,2.1864,2.1848,2.1893,2.1898,2.1943,2.1959,2.1967,2.1976,2.1957,2.2029,2.2036,2.2042,2.2066,2.2075,2.1966,2.1965,2.1965,2.1965,0,2.1823,2.1848,2.1873,2.1892,2.1906,2.1937,2.1933,2.1949,2.1941,2.1941,2.1977,2.1984,2.2004,2.2014,2.2006,2.2058,2.2049,2.2031,2.2001,2.2055,2.2076,2.2085,2.197,2.1969,2.1968,2.1967,0,0,2.1902,2.1918,2.1927,2.1937,2.195,2.1969,2.2,2.2021,2.2035,2.2048,2.2074,2.2105,2.2089,2.21,2.2092,2.2115,2.2168,2.2094,2.2094,2.2108,2.2228,2.2242,2.2252,2.2159,2.216,2.2162,2.2227,0,2.1963,2.2016,2.201,2.206,2.2084,2.2067,2.2093,2.2105,2.2106,2.2126,2.2127,2.215,2.2127,2.2134,2.2156,2.2157,2.2192,2.2152,2.2182,2.2184,2.218,2.2263,2.2277,2.2338,2.2235,2.2237,2.2238,0,2.2039,2.2057,2.2111,2.2122,2.2132,2.2156,2.2176,2.2196,2.2209,2.2208,2.2221,2.2211,2.2242,2.2212,2.2255,2.2228,2.224,2.2243,2.2245,2.2248,2.2214,2.2268,2.2358,2.2367,2.2251,2.225,2.2249,0,2.2093,2.213,2.2168,2.2176,2.219,2.2208,2.2214,2.2226,2.2239,2.2257,2.2266,2.2286,2.2298,2.2314,2.2309,2.2288,2.2354,2.2323,2.2355,2.2355,2.2369,2.2368,2.2462,2.2376,2.2376,2.2376,2.2376,0,2.2161,2.2194,2.2192,2.2215,2.2253,2.2246,2.2284,2.2288,2.2299,2.2322,2.2308,2.2331,2.2323,2.2346,2.2342,2.2379,2.2384,2.2385,2.2384,2.2386,2.2386,2.2394,2.239,2.2379,2.2378,2.2378,2.2377,0,2.2227,2.2227,2.2267,2.2278,2.2281,2.2309,2.2318,2.234,2.2341,2.2371,2.2378,2.238,2.2405,2.2403,2.2431,2.2429,2.2475,2.2468,2.2471,2.247,2.2502,2.2499,2.2604,2.2618,2.2523,2.2524,2.2525,0,2.227,2.2296,2.2311,2.2326,2.2334,2.2359,2.2374,2.2369,2.2385,2.2403,2.2423,2.2447,2.2467,2.2509,2.2512,2.2535,2.2529,2.2564,2.2532,2.2534,2.253,2.2529,2.2532,2.257,2.2571,2.2572,2.2573,0,2.2347,2.2347,2.2369,2.2392,2.241,2.2427,2.2443,2.2456,2.2453,2.2472,2.2499,2.2514,2.2544,2.2569,2.2591,2.2597,2.2585,2.2583,2.2592,2.2595,2.2596,2.2597,2.2489,2.2581,2.258,2.2579,2.2579,2.2579,2.2404,2.2427,2.2441,2.2467,2.2479,2.2494,2.2516,2.2521,2.2544,2.2568,2.2564,2.2595,2.2608,2.2636,2.2645,2.2669,2.2656,2.2669,2.2672,2.2675,2.2679,2.2592,2.2673,2.2673,2.2673,2.2672,2.2672,0,2.2481,2.249,2.2514,2.2538,2.2558,2.2546,2.2563,2.2581,2.2609,2.2623,2.2643,2.2675,2.27,2.2706,2.273,2.2748,2.2743,2.2755,2.2753,2.2755,2.2689,2.2679,2.2758,2.2758,2.2758,2.2758,2.2758,2.2758,2.2524,2.2563,2.2564,2.2609,2.2617,2.2648,2.2659,2.2674,2.2686,2.2722,2.2743,2.2748,2.2759,2.2784,2.2807,2.2808,2.2818,2.2832,2.2831,2.2768,2.276,2.2752,2.2743,2.2834,2.2834,2.2895,2.2896,2.2896]}]]